Weather History for Buckhannon, WV

Change the Weather History Date:

Tuesday, November 5, 2013

  Actual Average (KEKN) Record (KEKN)
Temperature  
Mean Temperature 48 °F 45 °F  
Max Temperature 60 °F 58 °F 76 °F (1935)
Min Temperature 35 °F 33 °F 8 °F (1991)
Degree Days  
Heating Degree Days 18 20  
Month to date heating degree days 96  
Since 1 July heating degree days 687  
Cooling Degree Days 0 0  
Month to date cooling degree days 0  
Year to date cooling degree days 475  
Moisture  
Dew Point 32 °F    
Average Humidity 57    
Maximum Humidity 87    
Minimum Humidity 29    
Precipitation  
Precipitation 0.00 in 0.11 in 1.27 in (1986)
Month to date precipitation 0.56  
Year to date precipitation 39.85  
Snow  
Snow 0.00 in - - ()
Month to date snowfall  
Since 1 September snowfall  
Snow Depth -    
Sea Level Pressure  
Sea Level Pressure 30.43 in    
Wind  
Wind Speed 0 mph (SE)    
Max Wind Speed 7 mph    
Max Gust Speed -    
Visibility 10 miles    
Events      
T = Trace of Precipitation, MM = Missing Value Source: NWS Daily Summary

Daily Weather History Graph

Daily Weather History Graph

Search for Another Location

Airport:

Trip Planner

Search our weather history database for the weather conditions in past years. The results will help you decide how hot, cold, wet, or windy it might be!

Date:

Astronomy

Nov. 05, 2013 Rise Set
Actual Time 6:53 AM EST 5:15 PM EST
Civil Twilight 6:25 AM EST 5:43 PM EST
Nautical Twilight 5:53 AM EST 6:15 PM EST
Astronomical Twilight 5:22 AM EST 6:46 PM EST
Moon 9:05 AM EST (11/5) 7:16 PM EST (11/5)
Length of Visible Light 11h 18m
Length of Day
10h 22m
Waxing Crescent, 6% of the Moon is Illuminated
Nov 5
Waxing Crescent
Nov 10
First Quarter
Nov 17
Full
Nov 25
Last Quarter
Dec 2
New

Hourly Weather History & Observations

Time (EST) Temp. Windchill Dew Point Humidity Pressure Visibility Wind Dir Wind Speed Gust Speed Precip Events Conditions
12:15 AM 44.6 °F - 30.2 °F 57% 30.43 in 3.0 mi Calm Calm - N/A   Haze
12:35 AM 44.6 °F - 28.4 °F 53% 30.43 in 2.5 mi Calm Calm - N/A   Haze
12:55 AM 42.8 °F - 30.2 °F 61% 30.43 in 5.0 mi Calm Calm - N/A   Haze
1:15 AM 42.8 °F - 32.0 °F 66% 30.44 in 10.0 mi Calm Calm - N/A   Clear
1:35 AM 42.8 °F - 30.2 °F 61% 30.43 in 10.0 mi Calm Calm - N/A   Clear
1:55 AM 41.0 °F - 30.2 °F 65% 30.43 in 10.0 mi Calm Calm - N/A   Clear
2:15 AM 41.0 °F - 30.2 °F 65% 30.44 in 10.0 mi Calm Calm - N/A   Clear
2:35 AM 39.2 °F - 32.0 °F 75% 30.43 in 10.0 mi Calm Calm - N/A   Clear
2:55 AM 39.2 °F - 32.0 °F 75% 30.43 in 10.0 mi Calm Calm - N/A   Clear
3:15 AM 37.4 °F - 32.0 °F 81% 30.44 in 10.0 mi Calm Calm - N/A   Clear
3:35 AM 37.4 °F - 32.0 °F 81% 30.44 in 10.0 mi Calm Calm - N/A   Clear
3:55 AM 39.2 °F - 32.0 °F 75% 30.45 in 10.0 mi Calm Calm - N/A   Clear
4:15 AM 37.4 °F - 32.0 °F 81% 30.45 in 10.0 mi Calm Calm - N/A   Clear
4:35 AM 39.2 °F - 30.2 °F 70% 30.45 in 10.0 mi Calm Calm - N/A   Clear
4:55 AM 37.4 °F - 32.0 °F 81% 30.46 in 10.0 mi Calm Calm - N/A   Clear
5:15 AM 37.4 °F - 32.0 °F 81% 30.46 in 10.0 mi Calm Calm - N/A   Clear
5:35 AM 37.4 °F 34.9 °F 32.0 °F 81% 30.46 in 10.0 mi ENE 3.5 mph - N/A   Clear
5:55 AM 37.4 °F - 32.0 °F 81% 30.46 in 10.0 mi Calm Calm - N/A   Clear
6:15 AM 37.4 °F - 32.0 °F 81% 30.45 in 10.0 mi Calm Calm - N/A   Clear
6:35 AM 35.6 °F - 32.0 °F 87% 30.45 in 10.0 mi Calm Calm - N/A   Clear
6:55 AM 37.4 °F - 32.0 °F 81% 30.47 in 10.0 mi Calm Calm - N/A   Clear
7:15 AM 35.6 °F - 32.0 °F 87% 30.48 in 10.0 mi Calm Calm - N/A   Clear
7:35 AM 37.4 °F - 32.0 °F 81% 30.48 in 10.0 mi Calm Calm - N/A   Clear
7:55 AM 37.4 °F - 32.0 °F 81% 30.49 in 10.0 mi Calm Calm - N/A   Clear
8:15 AM 37.4 °F - 32.0 °F 81% 30.50 in 10.0 mi Calm Calm - N/A   Clear
8:35 AM 39.2 °F - 32.0 °F 75% 30.50 in 10.0 mi Calm Calm - N/A   Clear
8:55 AM 39.2 °F - 35.6 °F 87% 30.50 in 10.0 mi Calm Calm - N/A   Clear
9:15 AM 42.8 °F - 33.8 °F 70% 30.48 in 10.0 mi Calm Calm - N/A   Clear
9:35 AM 44.6 °F - 32.0 °F 61% 30.48 in 10.0 mi Calm Calm - N/A   Clear
9:55 AM 46.4 °F - 32.0 °F 57% 30.47 in 10.0 mi Calm Calm - N/A   Clear
10:15 AM 48.2 °F - 32.0 °F 54% 30.47 in 10.0 mi Calm Calm - N/A   Clear
10:35 AM 51.8 °F - 32.0 °F 47% 30.48 in 10.0 mi Calm Calm - N/A   Clear
10:55 AM 51.8 °F - 32.0 °F 47% 30.48 in 10.0 mi Calm Calm - N/A   Clear
11:15 AM 53.6 °F - 32.0 °F 44% 30.47 in 10.0 mi Calm Calm - N/A   Clear
11:35 AM 55.4 °F - 32.0 °F 41% 30.45 in 10.0 mi Calm Calm - N/A   Clear
11:55 AM 55.4 °F - 32.0 °F 41% 30.46 in 10.0 mi Calm Calm - N/A   Clear
12:15 PM 55.4 °F - 32.0 °F 41% 30.46 in 10.0 mi Calm Calm - N/A   Clear
12:35 PM 55.4 °F - 32.0 °F 41% 30.44 in 10.0 mi Calm Calm - N/A   Clear
12:55 PM 57.2 °F - 32.0 °F 38% 30.44 in 10.0 mi Calm Calm - N/A   Clear
1:15 PM 57.2 °F - 32.0 °F 38% 30.42 in 10.0 mi Calm Calm - N/A   Clear
1:35 PM 57.2 °F - 32.0 °F 38% 30.42 in 10.0 mi Calm Calm - N/A   Clear
1:55 PM 57.2 °F - 32.0 °F 38% 30.41 in 10.0 mi Calm Calm - N/A   Clear
2:15 PM 60.8 °F - 32.0 °F 34% 30.41 in 10.0 mi Calm Calm - N/A   Clear
2:35 PM 59.0 °F - 32.0 °F 36% 30.40 in 10.0 mi Calm Calm - N/A   Clear
2:55 PM 60.8 °F - 32.0 °F 34% 30.40 in 10.0 mi Calm Calm - N/A   Clear
3:15 PM 60.8 °F - 32.0 °F 34% 30.39 in 10.0 mi Calm Calm - N/A   Clear
3:35 PM 60.8 °F - 32.0 °F 34% 30.39 in 10.0 mi Calm Calm - N/A   Clear
3:55 PM 59.0 °F - 32.0 °F 36% 30.39 in 10.0 mi Calm Calm - N/A   Clear
4:15 PM 59.0 °F - 32.0 °F 36% 30.39 in 10.0 mi Calm Calm - N/A   Clear
4:35 PM 57.2 °F - 32.0 °F 38% 30.38 in 10.0 mi Calm Calm - N/A   Clear
4:55 PM 57.2 °F - 32.0 °F 38% 30.39 in 10.0 mi Calm Calm - N/A   Clear
5:15 PM 55.4 °F - 32.0 °F 41% 30.39 in 10.0 mi Calm Calm - N/A   Clear
5:35 PM 55.4 °F - 32.0 °F 41% 30.38 in 10.0 mi Calm Calm - N/A   Clear
5:55 PM 55.4 °F - 32.0 °F 41% 30.39 in 10.0 mi Calm Calm - N/A   Clear
6:15 PM 53.6 °F - 32.0 °F 44% 30.40 in 10.0 mi Calm Calm - N/A   Clear
6:35 PM 55.4 °F - 26.6 °F 33% 30.39 in 10.0 mi SSE 6.9 mph - N/A   Clear
6:55 PM 55.4 °F - 23.0 °F 29% 30.40 in 10.0 mi Calm Calm - N/A   Clear
7:15 PM 53.6 °F - 26.6 °F 35% 30.39 in 10.0 mi Calm Calm - N/A   Clear
7:35 PM 53.6 °F - 24.8 °F 33% 30.40 in 10.0 mi Calm Calm - N/A   Clear
7:55 PM 51.8 °F - 26.6 °F 38% 30.39 in 10.0 mi SSE 5.8 mph - N/A   Clear
8:15 PM 51.8 °F - 28.4 °F 41% 30.39 in 10.0 mi Calm Calm - N/A   Clear
8:35 PM 48.2 °F - 32.0 °F 54% 30.38 in 10.0 mi Calm Calm - N/A   Clear
8:55 PM 48.2 °F - 32.0 °F 54% 30.38 in 10.0 mi Calm Calm - N/A   Clear
9:15 PM 48.2 °F - 33.8 °F 58% 30.37 in 10.0 mi SE 4.6 mph - N/A   Clear
9:35 PM 48.2 °F - 33.8 °F 58% 30.37 in 10.0 mi Calm Calm - N/A   Clear
9:55 PM 48.2 °F - 33.8 °F 58% 30.37 in 10.0 mi Calm Calm - N/A   Clear
10:15 PM 48.2 °F - 33.8 °F 58% 30.37 in 10.0 mi Calm Calm - N/A   Clear
10:35 PM 48.2 °F - 33.8 °F 58% 30.36 in 10.0 mi Calm Calm - N/A   Clear
10:55 PM 48.2 °F - 35.6 °F 62% 30.36 in 10.0 mi Calm Calm - N/A   Clear
11:15 PM 46.4 °F - 33.8 °F 62% 30.36 in 10.0 mi Calm Calm - N/A   Clear
11:35 PM 44.6 °F - 33.8 °F 66% 30.36 in 10.0 mi Calm Calm - N/A   Clear
11:55 PM 44.6 °F - 33.8 °F 66% 30.36 in 10.0 mi Calm Calm - N/A   Clear